GW1000 Weather Reports


Display with metric or nautical units.
time (UTC)temp
F
wind
direction
speed
MPH
gust
MPH
rain 1hr
in
rain 24hr
in
rain mn
in
humidity
%
barometer
mb
20260509102449 79 299 4.0 5.0 0.00 0.00 0.00 62 1011.3
20260509101946 78 300 7.0 9.0 0.00 0.00 0.00 63 1011.4
20260509101442 79 272 8.0 10.0 0.00 0.00 0.00 62 1011.4
20260509100939 78 320 4.0 13.0 0.00 0.00 0.00 64 1011.4
20260509100437 77 321 11.0 14.0 0.00 0.00 0.00 65 1011.4
20260509095933 78 346 3.0 8.0 0.00 0.00 0.00 64 1011.5
20260509095430 78 270 5.0 8.0 0.00 0.00 0.00 65 1011.4
20260509094927 77 316 10.0 13.0 0.00 0.00 0.00 66 1011.5
20260509094424 77 282 6.0 10.0 0.00 0.00 0.00 66 1011.7
20260509093922 77 322 6.0 11.0 0.00 0.00 0.00 65 1011.7
20260509093419 77 266 10.0 13.0 0.00 0.00 0.00 66 1011.6
20260509092917 78 346 9.0 10.0 0.00 0.00 0.00 64 1011.8
20260509092414 77 276 8.0 10.0 0.00 0.00 0.00 65 1011.8
20260509091913 78 343 10.0 14.0 0.00 0.00 0.00 65 1012.0
20260509091409 77 278 7.0 13.0 0.00 0.00 0.00 65 1012.0
20260509090907 78 297 7.0 14.0 0.00 0.00 0.00 64 1012.0
20260509090404 79 346 8.0 15.0 0.00 0.00 0.00 62 1012.0
20260509085902 79 335 4.0 8.0 0.00 0.00 0.00 53 1012.0
20260509085359 79 61 5.0 7.0 0.00 0.00 0.00 54 1012.0
20260509084855 79 347 8.0 10.0 0.00 0.00 0.00 53 1012.0
20260509084352 78 299 3.0 6.0 0.00 0.00 0.00 54 1012.2
20260509083850 78 65 1.0 2.0 0.00 0.00 0.00 56 1012.2
20260509083346 77 31 5.0 11.0 0.00 0.00 0.00 57 1012.1
20260509082843 77 329 5.0 7.0 0.00 0.00 0.00 58 1012.4
20260509082339 76 307 4.0 8.0 0.00 0.00 0.00 59 1012.3
20260509081837 77 28 2.0 8.0 0.00 0.00 0.00 59 1012.3
20260509081333 76 315 5.0 9.0 0.00 0.00 0.00 61 1012.2
20260509080831 75 312 2.0 11.0 0.00 0.00 0.00 62 1012.4
20260509080329 75 327 6.0 8.0 0.00 0.00 0.00 61 1012.2
20260509075827 76 47 3.0 8.0 0.00 0.00 0.00 61 1012.3
20260509075324 75 276 0.0 6.0 0.00 0.00 0.00 62 1012.3
20260509074821 76 18 1.0 3.0 0.00 0.00 0.00 61 1012.3
20260509074319 75 346 1.0 5.0 0.00 0.00 0.00 63 1012.4
20260509073815 75 315 5.0 8.0 0.00 0.00 0.00 62 1012.3
20260509073311 74 5 2.0 7.0 0.00 0.00 0.00 64 1012.3
20260509072808 75 12 2.0 5.0 0.00 0.00 0.00 64 1012.3
20260509072306 74 351 1.0 2.0 0.00 0.00 0.00 64 1012.5
20260509071801 73 0 1.0 3.0 0.00 0.00 0.00 65 1012.4
20260509071258 74 357 1.0 3.0 0.00 0.00 0.00 64 1012.2
20260509070755 74 105 0.0 2.0 0.00 0.00 0.00 63 1012.3
20260509070251 73 104 1.0 3.0 0.00 0.00 0.00 65 1012.5
20260509065748 72 301 1.0 2.0 0.00 0.00 0.00 67 1012.5
20260509065244 71 340 3.0 6.0 0.00 0.00 0.00 67 1012.5
20260509064741 72 354 2.0 7.0 0.00 0.00 0.00 67 1012.6
20260509064238 73 101 3.0 5.0 0.00 0.00 0.00 67 1012.4
20260509063736 73 347 3.0 3.0 0.00 0.00 0.00 68 1012.5
20260509063232 72 235 1.0 1.0 0.00 0.00 0.00 69 1012.6
20260509062729 71 235 1.0 3.0 0.00 0.00 0.00 70 1012.6
20260509062226 70 214 1.0 2.0 0.00 0.00 0.00 71 1012.6
20260509061723 70 286 3.0 3.0 0.00 0.00 0.00 72 1012.5
20260509061221 69 243 0.0 1.0 0.00 0.00 0.00 74 1012.4
20260509060718 69 243 3.0 5.0 0.00 0.00 0.00 74 1012.5
20260509060214 69 231 2.0 5.0 0.00 0.00 0.00 74 1012.6
20260509055710 70 239 2.0 3.0 0.00 0.00 0.00 73 1012.7
20260509055206 69 125 1.0 1.0 0.00 0.00 0.00 74 1012.7
20260509054703 69 291 1.0 2.0 0.00 0.00 0.00 75 1012.7
20260509054200 68 245 2.0 5.0 0.00 0.00 0.00 75 1012.7
20260509053659 69 313 2.0 2.0 0.00 0.00 0.00 75 1012.7
20260509053155 69 113 2.0 2.0 0.00 0.00 0.00 76 1012.8
20260509052653 69 36 2.0 2.0 0.00 0.00 0.00 76 1012.7
20260509052150 69 120 1.0 2.0 0.00 0.00 0.00 76 1013.0
20260509051648 68 91 1.0 1.0 0.00 0.00 0.00 77 1012.6
20260509051145 68 0 1.0 2.0 0.00 0.00 0.00 78 1013.0
20260509050642 68 57 1.0 3.0 0.00 0.00 0.00 79 1012.7
20260509050138 67 91 1.0 1.0 0.00 0.00 0.00 80 1012.7
20260509045636 67 73 2.0 2.0 0.00 0.00 0.00 81 1012.7
20260509045133 66 23 1.0 2.0 0.00 0.00 0.00 81 1012.9
20260509044630 66 11 1.0 2.0 0.00 0.00 0.00 82 1012.8
20260509044127 66 350 1.0 1.0 0.00 0.00 0.00 82 1012.9
20260509043624 66 3 1.0 1.0 0.00 0.00 0.00 82 1012.8
20260509043120 66 42 0.0 0.0 0.00 0.00 0.00 82 1012.7
20260509042617 66 5 1.0 1.0 0.00 0.00 0.00 83 1012.6
20260509042112 65 5 0.0 1.0 0.00 0.00 0.00 83 1012.6
20260509041609 65 5 1.0 2.0 0.00 0.00 0.00 83 1012.7
20260509041106 65 3 1.0 2.0 0.00 0.00 0.00 83 1012.7
20260509040605 65 353 2.0 2.0 0.00 0.00 0.00 83 1012.9
20260509040101 65 14 1.0 2.0 0.00 0.00 0.00 83 1012.9
20260509035558 65 34 0.0 1.0 0.00 0.00 0.00 83 1012.7
20260509035055 65 84 0.0 2.0 0.00 0.00 0.00 83 1012.6
20260509034553 65 72 0.0 2.0 0.00 0.00 0.00 84 1012.6
20260509034049 64 148 3.0 5.0 0.00 0.00 0.00 84 1012.4
20260509033547 64 168 1.0 2.0 0.00 0.00 0.00 84 1012.4
20260509033043 64 35 0.0 1.0 0.00 0.00 0.00 85 1012.7
20260509032541 64 4 1.0 1.0 0.00 0.00 0.00 84 1012.4
20260509032038 64 7 0.0 1.0 0.00 0.00 0.00 84 1012.5
20260509031535 64 14 0.0 2.0 0.00 0.00 0.00 84 1012.5
20260509031033 64 163 0.0 2.0 0.00 0.00 0.00 84 1012.2
20260509030531 64 90 0.0 1.0 0.00 0.00 0.00 84 1012.2
20260509030027 64 174 1.0 2.0 0.00 0.00 0.00 84 1011.9
20260509025524 64 135 1.0 2.0 0.00 0.00 0.00 84 1012.1
20260509025019 64 212 1.0 3.0 0.00 0.00 0.00 84 1012.1
20260509024515 64 158 1.0 3.0 0.00 0.00 0.00 84 1012.2
20260509024012 64 184 1.0 2.0 0.00 0.00 0.00 84 1012.1
20260509023510 64 181 2.0 2.0 0.00 0.00 0.00 85 1011.9
20260509023006 64 142 1.0 6.0 0.00 0.00 0.00 85 1012.2
20260509022502 64 176 2.0 3.0 0.00 0.00 0.00 85 1012.3
20260509022000 65 217 1.0 2.0 0.00 0.00 0.00 85 1012.0
20260509021457 65 178 1.0 3.0 0.00 0.00 0.00 85 1012.2
20260509020954 65 147 2.0 3.0 0.00 0.00 0.00 85 1012.4
20260509020452 65 183 2.0 2.0 0.00 0.00 0.00 85 1012.3
20260509015949 65 136 2.0 5.0 0.00 0.00 0.00 85 1012.4
20260509015448 65 178 3.0 3.0 0.00 0.00 0.00 85 1012.2
20260509014944 64 163 3.0 5.0 0.00 0.00 0.00 86 1012.3
20260509014442 64 198 2.0 3.0 0.00 0.00 0.00 86 1012.4
20260509013938 64 104 0.0 2.0 0.00 0.00 0.00 86 1012.6
20260509013435 64 178 2.0 3.0 0.00 0.00 0.00 86 1012.7
20260509012930 64 194 1.0 3.0 0.00 0.00 0.00 87 1012.5
20260509012427 64 180 2.0 5.0 0.00 0.00 0.00 87 1012.6
20260509011924 64 173 2.0 3.0 0.00 0.00 0.00 88 1012.5
20260509011422 64 151 2.0 3.0 0.00 0.00 0.00 88 1012.5
20260509010920 64 182 2.0 2.0 0.00 0.00 0.00 88 1012.4
20260509010417 64 283 0.0 1.0 0.00 0.00 0.00 88 1012.5
20260509005913 64 186 2.0 3.0 0.00 0.00 0.00 88 1012.3
20260509005411 63 133 1.0 2.0 0.00 0.00 0.00 89 1012.3
20260509004911 62 337 0.0 1.0 0.00 0.00 0.00 88 1012.6
20260509004408 63 176 0.0 2.0 0.00 0.00 0.00 88 1012.6
20260509003906 62 17 0.0 0.0 0.00 0.00 0.00 89 1012.4
20260509003403 63 7 1.0 1.0 0.00 0.00 0.00 89 1012.5
20260509002900 62 222 1.0 2.0 0.00 0.00 0.00 89 1012.4
20260509002358 62 199 0.0 1.0 0.00 0.00 0.00 89 1012.5
20260509001855 62 52 0.0 0.0 0.00 0.00 0.00 90 1012.7
20260509001351 61 52 0.0 0.0 0.00 0.00 0.00 89 1012.7
20260509000849 61 52 0.0 1.0 0.00 0.00 0.00 89 1012.7
20260509000348 62 53 0.0 0.0 0.00 0.00 0.00 89 1012.4
20260508235842 61 43 0.0 0.0 0.00 0.00 0.00 89 1012.4
20260508235340 61 42 0.0 0.0 0.00 0.00 0.00 89 1012.3
20260508234836 61 42 0.0 0.0 0.00 0.00 0.00 89 1012.1
20260508234333 60 44 0.0 0.0 0.00 0.00 0.00 90 1012.0
20260508233832 61 39 0.0 0.0 0.00 0.00 0.00 89 1012.1
20260508233331 61 58 0.0 0.0 0.00 0.00 0.00 89 1011.8
20260508232827 61 55 0.0 0.0 0.00 0.00 0.00 89 1011.8
20260508232323 61 55 0.0 0.0 0.00 0.00 0.00 89 1011.8
20260508231822 61 55 0.0 0.0 0.00 0.00 0.00 89 1011.9
20260508231317 61 56 0.0 0.0 0.00 0.00 0.00 89 1012.0
20260508230815 61 57 0.0 0.0 0.00 0.00 0.00 89 1011.9
20260508230311 61 57 0.0 0.0 0.00 0.00 0.00 89 1012.0
20260508225809 61 33 0.0 1.0 0.00 0.00 0.00 89 1011.9
20260508225306 61 33 0.0 1.0 0.00 0.00 0.00 89 1011.9
20260508224803 61 33 0.0 0.0 0.00 0.00 0.00 89 1012.0
20260508224300 61 32 0.0 0.0 0.00 0.00 0.00 88 1012.0
20260508223758 61 32 0.0 0.0 0.00 0.00 0.00 88 1012.3
20260508223255 61 32 0.0 0.0 0.00 0.00 0.00 88 1011.9
20260508222752 62 32 0.0 1.0 0.00 0.00 0.00 88 1012.2
20260508222249 62 36 0.0 1.0 0.00 0.00 0.00 88 1012.1
20260508221746 62 36 0.0 1.0 0.00 0.00 0.00 88 1012.3
20260508221242 62 36 0.0 0.0 0.00 0.00 0.00 88 1012.3
20260508220738 62 35 0.0 0.0 0.00 0.00 0.00 88 1012.3
20260508220234 62 35 0.0 1.0 0.00 0.00 0.00 87 1012.4
20260508215731 63 69 0.0 1.0 0.00 0.00 0.00 88 1012.8
20260508215228 63 50 0.0 0.0 0.00 0.00 0.00 88 1012.6
20260508214725 62 49 0.0 0.0 0.00 0.00 0.00 87 1012.6
20260508214222 63 124 1.0 1.0 0.00 0.00 0.00 87 1012.7
20260508213718 62 11 0.0 0.0 0.00 0.00 0.00 88 1012.7
20260508213215 62 11 0.0 0.0 0.00 0.00 0.00 87 1012.9
20260508212712 63 11 0.0 0.0 0.00 0.00 0.00 87 1012.8
20260508212208 63 11 0.0 0.0 0.00 0.00 0.00 87 1012.9
20260508211704 63 11 0.0 0.0 0.00 0.00 0.00 87 1012.9
20260508211200 63 10 0.0 1.0 0.00 0.00 0.00 86 1013.2
20260508210657 63 12 0.0 1.0 0.00 0.00 0.00 86 1013.0
20260508210154 63 20 0.0 1.0 0.00 0.00 0.00 86 1013.3
20260508205651 63 19 0.0 0.0 0.00 0.00 0.00 86 1013.1
20260508205148 63 13 0.0 1.0 0.00 0.00 0.00 86 1013.2
20260508204644 63 26 0.0 1.0 0.00 0.00 0.00 86 1013.1
20260508204140 64 35 0.0 1.0 0.00 0.00 0.00 86 1013.3
20260508203636 64 31 1.0 1.0 0.00 0.00 0.00 86 1013.0
20260508203132 64 301 1.0 1.0 0.00 0.00 0.00 86 1013.1
20260508202629 64 229 0.0 1.0 0.00 0.00 0.00 86 1013.1
20260508202126 64 135 0.0 1.0 0.00 0.00 0.00 86 1013.2
20260508201623 64 137 0.0 1.0 0.00 0.00 0.00 86 1013.0
20260508201119 64 127 1.0 1.0 0.00 0.00 0.00 86 1013.0
20260508200616 64 123 0.0 1.0 0.00 0.00 0.00 85 1012.8
20260508200112 64 270 0.0 0.0 0.00 0.00 0.00 85 1012.8
20260508195609 65 223 1.0 2.0 0.00 0.00 0.00 85 1012.9
20260508195105 65 227 0.0 1.0 0.00 0.00 0.00 85 1012.9
20260508194602 65 205 1.0 2.0 0.00 0.00 0.00 85 1012.8
20260508194059 65 219 0.0 1.0 0.00 0.00 0.00 85 1013.0
20260508193556 64 223 1.0 1.0 0.00 0.00 0.00 85 1013.2
20260508193053 65 200 1.0 1.0 0.00 0.00 0.00 85 1013.0
20260508192549 65 196 0.0 1.0 0.00 0.00 0.00 85 1013.2
20260508192047 65 220 1.0 2.0 0.00 0.00 0.00 85 1012.9
20260508191543 65 210 1.0 2.0 0.00 0.00 0.00 85 1013.2
20260508191040 65 216 1.0 1.0 0.00 0.00 0.00 85 1013.1
20260508190537 65 216 1.0 1.0 0.00 0.00 0.00 85 1012.9
20260508190033 65 296 1.0 1.0 0.00 0.00 0.00 85 1012.8
20260508185530 65 345 0.0 0.0 0.00 0.00 0.00 84 1013.0
20260508185028 65 344 0.0 1.0 0.00 0.00 0.00 84 1013.0
20260508184526 65 344 0.0 1.0 0.00 0.00 0.00 84 1012.8
20260508184022 65 345 0.0 1.0 0.00 0.00 0.00 84 1013.0
20260508183519 65 345 0.0 1.0 0.00 0.00 0.00 84 1012.8
20260508183015 65 345 0.0 0.0 0.00 0.00 0.00 83 1012.9
20260508182512 65 345 0.0 0.0 0.00 0.00 0.00 83 1012.7
20260508182008 66 345 0.0 0.0 0.00 0.00 0.00 83 1012.8
20260508181503 66 345 0.0 0.0 0.00 0.00 0.00 83 1012.8
20260508181001 66 345 0.0 1.0 0.00 0.00 0.00 83 1012.8
20260508180458 66 345 0.0 0.0 0.00 0.00 0.00 82 1012.8
20260508175954 66 345 1.0 1.0 0.00 0.00 0.00 82 1012.5
20260508175450 66 345 1.0 1.0 0.00 0.00 0.00 82 1012.4
20260508174948 66 353 2.0 3.0 0.00 0.00 0.00 82 1012.9
20260508174445 66 2 1.0 1.0 0.00 0.00 0.00 81 1012.6
20260508173942 66 348 1.0 3.0 0.00 0.00 0.00 81 1012.8
20260508173439 66 316 2.0 3.0 0.00 0.00 0.00 81 1012.7
20260508172935 67 319 4.0 6.0 0.00 0.00 0.00 81 1012.6
20260508172432 67 355 5.0 6.0 0.00 0.00 0.00 80 1012.8
20260508171928 67 11 2.0 5.0 0.00 0.00 0.00 80 1012.6
20260508171424 67 339 3.0 6.0 0.00 0.00 0.00 79 1012.5
20260508170921 67 299 3.0 5.0 0.00 0.00 0.00 79 1012.7
20260508170419 67 308 4.0 8.0 0.00 0.00 0.00 79 1012.4
20260508165916 67 342 6.0 8.0 0.00 0.00 0.00 78 1012.5
20260508165414 67 340 7.0 8.0 0.00 0.00 0.00 78 1012.3
20260508164909 68 282 7.0 8.0 0.00 0.00 0.00 77 1012.2
20260508164407 68 276 4.0 7.0 0.00 0.00 0.00 77 1011.9
20260508163904 68 342 6.0 8.0 0.00 0.00 0.00 76 1011.7
20260508163402 68 283 5.0 10.0 0.00 0.00 0.00 75 1011.9
20260508162857 68 333 5.0 7.0 0.00 0.00 0.00 75 1011.7
20260508162355 69 322 5.0 9.0 0.00 0.00 0.00 74 1011.9
20260508161851 69 338 7.0 8.0 0.00 0.00 0.00 73 1011.8
20260508161349 69 276 5.0 9.0 0.00 0.00 0.00 72 1011.5
20260508160846 70 288 7.0 8.0 0.00 0.00 0.00 71 1011.6
20260508160345 70 273 7.0 9.0 0.00 0.00 0.00 70 1011.3
20260508155840 71 288 7.0 7.0 0.00 0.00 0.00 69 1011.3
20260508155338 71 352 5.0 7.0 0.00 0.00 0.00 68 1011.2
20260508154835 72 345 6.0 8.0 0.00 0.00 0.00 67 1011.3
20260508154332 72 342 7.0 8.0 0.00 0.00 0.00 66 1011.2
20260508153828 73 290 3.0 7.0 0.00 0.00 0.00 66 1011.0
20260508153326 73 274 6.0 8.0 0.00 0.00 0.00 64 1011.0
20260508152822 73 344 5.0 8.0 0.00 0.00 0.00 63 1011.0
20260508152318 74 276 5.0 9.0 0.00 0.00 0.00 63 1011.0
20260508151814 74 343 7.0 8.0 0.00 0.00 0.00 61 1011.2
20260508151311 73 307 7.0 8.0 0.00 0.00 0.00 61 1011.2
20260508150808 74 334 9.0 13.0 0.00 0.00 0.00 62 1011.2
20260508150305 74 352 8.0 10.0 0.00 0.00 0.00 62 1011.3
20260508145802 75 335 5.0 10.0 0.00 0.00 0.00 62 1011.4
20260508145257 75 332 8.0 9.0 0.00 0.00 0.00 61 1011.1
20260508144754 75 324 7.0 10.0 0.00 0.00 0.00 60 1011.1
20260508144252 75 312 5.0 9.0 0.00 0.00 0.00 60 1011.3
20260508143749 75 7 3.0 8.0 0.00 0.00 0.00 61 1011.1
20260508143247 75 318 9.0 11.0 0.00 0.00 0.00 60 1011.1
20260508142743 75 330 6.0 10.0 0.00 0.00 0.00 59 1011.0
20260508142240 76 340 8.0 9.0 0.00 0.00 0.00 58 1010.9
20260508141736 76 357 8.0 10.0 0.00 0.00 0.00 56 1010.9
20260508141234 76 344 9.0 11.0 0.00 0.00 0.00 56 1010.8
20260508140731 76 337 7.0 13.0 0.00 0.00 0.00 57 1010.8
20260508140227 76 348 9.0 13.0 0.00 0.00 0.00 56 1011.1
20260508135723 77 341 5.0 11.0 0.00 0.00 0.00 56 1010.9
20260508135219 77 342 9.0 10.0 0.00 0.00 0.00 54 1011.0
20260508134710 77 358 6.0 10.0 0.00 0.00 0.00 54 1011.0
20260508134207 78 21 2.0 9.0 0.00 0.00 0.00 51 1011.0
20260508133704 78 333 9.0 11.0 0.00 0.00 0.00 52 1010.9
20260508133202 77 353 8.0 11.0 0.00 0.00 0.00 53 1010.9
20260508132659 77 357 7.0 11.0 0.00 0.00 0.00 53 1011.0
20260508132156 77 270 7.0 14.0 0.00 0.00 0.00 51 1011.1
20260508131651 78 337 9.0 14.0 0.00 0.00 0.00 51 1011.0
20260508131148 78 351 6.0 13.0 0.00 0.00 0.00 51 1011.1
20260508130645 77 13 6.0 10.0 0.00 0.00 0.00 53 1011.1
20260508130142 77 324 11.0 13.0 0.00 0.00 0.00 54 1011.2
20260508125637 77 286 11.0 13.0 0.00 0.00 0.00 53 1011.2
20260508125134 77 287 9.0 11.0 0.00 0.00 0.00 55 1011.1
20260508124633 77 329 10.0 11.0 0.00 0.00 0.00 54 1011.2
20260508124129 77 332 12.0 15.0 0.00 0.00 0.00 55 1011.1
20260508123628 77 325 9.0 11.0 0.00 0.00 0.00 54 1011.3
20260508123125 77 21 4.0 11.0 0.00 0.00 0.00 53 1011.4
20260508122621 77 250 9.0 14.0 0.00 0.00 0.00 53 1011.5
20260508122118 77 347 12.0 15.0 0.00 0.00 0.00 54 1011.5
20260508121617 78 231 11.0 14.0 0.00 0.00 0.00 53 1011.4
20260508121114 77 349 5.0 13.0 0.00 0.00 0.00 54 1011.5
20260508120611 77 306 10.0 14.0 0.00 0.00 0.00 53 1011.6
20260508120110 77 326 12.0 18.0 0.00 0.00 0.00 54 1011.6
20260508115607 77 329 12.0 18.0 0.00 0.00 0.00 54 1011.6
20260508115103 76 354 11.0 17.0 0.00 0.00 0.00 58 1011.5
20260508114601 76 267 10.0 14.0 0.00 0.00 0.00 57 1011.7
20260508114056 77 277 8.0 18.0 0.00 0.00 0.00 57 1011.8
20260508113554 77 33 2.0 9.0 0.00 0.00 0.00 56 1011.7
20260508113052 77 271 9.0 17.0 0.00 0.00 0.00 56 1011.9
20260508112548 76 312 9.0 17.0 0.00 0.00 0.00 57 1012.0
20260508112045 78 0 9.0 14.0 0.00 0.00 0.00 56 1012.1
20260508111542 77 356 7.0 11.0 0.00 0.00 0.00 56 1012.1
20260508111039 76 276 13.0 18.0 0.00 0.00 0.00 58 1012.1
20260508110537 76 283 18.0 20.0 0.00 0.00 0.00 59 1012.0
20260508110033 76 343 9.0 21.0 0.00 0.00 0.00 59 1012.0
20260508105533 77 348 14.0 17.0 0.00 0.00 0.00 58 1012.0
20260508105030 77 341 15.0 18.0 0.00 0.00 0.00 59 1011.9
20260508104528 78 354 10.0 20.0 0.00 0.00 0.00 57 1011.7
20260508104024 78 286 8.0 11.0 0.00 0.00 0.00 57 1011.9
20260508103521 77 358 9.0 16.0 0.00 0.00 0.00 60 1012.0
20260508103019 77 346 5.0 11.0 0.00 0.00 0.00 60 1011.8